Dillon, MT

3:08 PM MDT on May 29, 2017 (GMT -0600)
Dillon

Weather History for KDLN - November, 2013

Change the Weather History Date:

Saturday, November 2, 2013

  Actual Average Record
Temperature  
Mean Temperature 41 °F 37 °F  
Max Temperature 56 °F 49 °F 65 °F (1978)
Min Temperature 26 °F 25 °F -12 °F (1991)
Degree Days  
Heating Degree Days 24    
Month to date heating degree days 50  
Since 1 July heating degree days 1055  
Cooling Degree Days 0    
Month to date cooling degree days 0  
Year to date cooling degree days 247  
Moisture  
Dew Point 28 °F    
Average Humidity 64    
Maximum Humidity 92    
Minimum Humidity 35    
Precipitation  
Precipitation T in 0.01 in 0.30 in (2005)
Month to date precipitation T 0.03  
Year to date precipitation 9.47 9.96  
Snow  
Snow 0.00 in - - ()
Snow Depth 0.00 in    
Sea Level Pressure  
Sea Level Pressure 29.79 in    
Wind  
Wind Speed 12 mph (SSW)    
Max Wind Speed 33 mph    
Max Gust Speed 41 mph    
Visibility 10 miles    
Events      
T = Trace of Precipitation, MM = Missing Value Source: NWS Daily Summary

Daily Weather History Graph

Daily Weather History Graph

Search for Another Location

Airport or City:

Trip Planner

Search our weather history database for the weather conditions in past years. The results will help you decide how hot, cold, wet, or windy it might be!

Date:

Astronomy

Nov. 02, 2013 Rise Set
Actual Time 8:11 AM MDT 6:15 PM MDT
Civil Twilight 7:40 AM MDT 6:46 PM MDT
Nautical Twilight 7:05 AM MDT 7:21 PM MDT
Astronomical Twilight 6:30 AM MDT 7:55 PM MDT
Moon 7:10 AM MDT (11/2) 5:50 PM MDT (11/2)
Length of Visible Light 11h 06m
Length of Day
10h 04m
Waning Crescent, 1% of the Moon is Illuminated
Nov 2
Waning Crescent
Nov 3
New
Nov 9
First Quarter
Nov 17
Full
Nov 25
Last Quarter

Hourly Weather History & Observations

Time (MDT) Temp. Windchill Dew Point Humidity Pressure Visibility Wind Dir Wind Speed Gust Speed Precip Events Conditions
12:53 AM 34.0 °F 28.0 °F 26.1 °F 73% 30.10 in 10.0 mi South 6.9 mph - N/A   Clear
1:53 AM 30.9 °F 27.5 °F 25.0 °F 79% 30.08 in 10.0 mi South 3.5 mph - N/A   Clear
2:53 AM 30.9 °F 25.2 °F 25.0 °F 79% 30.05 in 10.0 mi South 5.8 mph - N/A   Clear
3:53 AM 33.1 °F 28.7 °F 26.1 °F 75% 30.01 in 10.0 mi South 4.6 mph - N/A   Clear
4:53 AM 35.1 °F 31.0 °F 27.0 °F 72% 29.98 in 10.0 mi South 4.6 mph - N/A   Clear
5:53 AM 34.0 °F 29.8 °F 26.1 °F 73% 29.96 in 10.0 mi SW 4.6 mph - N/A   Clear
6:53 AM 27.0 °F 18.7 °F 24.1 °F 89% 29.99 in 10.0 mi SE 8.1 mph - N/A   Clear
7:53 AM 33.1 °F - 27.0 °F 78% 29.96 in 10.0 mi Calm Calm - N/A   Clear
8:53 AM 34.0 °F 27.2 °F 27.0 °F 75% 29.95 in 10.0 mi South 8.1 mph - N/A   Clear
9:53 AM 37.9 °F 34.4 °F 28.9 °F 70% 29.91 in 10.0 mi WSW 4.6 mph - N/A   Clear
10:53 AM 44.1 °F - 30.0 °F 58% 29.84 in 10.0 mi Calm Calm - N/A   Clear
11:53 AM 51.1 °F - 28.9 °F 43% 29.78 in 10.0 mi ESE 10.4 mph 18.4 mph N/A   Clear
12:53 PM 55.0 °F - 28.0 °F 35% 29.71 in 10.0 mi South 16.1 mph 26.5 mph N/A   Clear
1:53 PM 52.0 °F - 27.0 °F 38% 29.68 in 10.0 mi South 17.3 mph 24.2 mph N/A   Clear
2:53 PM 54.0 °F - 27.0 °F 35% 29.62 in 10.0 mi South 27.6 mph 40.3 mph N/A   Clear
3:53 PM 51.1 °F - 27.0 °F 39% 29.61 in 10.0 mi South 23.0 mph 36.8 mph N/A   Clear
4:53 PM 52.0 °F - 27.0 °F 38% 29.59 in 10.0 mi South 20.7 mph 36.8 mph N/A   Mostly Cloudy
5:53 PM 50.0 °F - 28.0 °F 43% 29.60 in 10.0 mi South 20.7 mph 27.6 mph N/A   Overcast
6:53 PM 46.9 °F - 32.0 °F 56% 29.65 in 10.0 mi South 24.2 mph 28.8 mph N/A   Overcast
7:53 PM 46.9 °F - 33.1 °F 59% 29.62 in 10.0 mi SSW 20.7 mph 27.6 mph N/A   Overcast
8:08 PM 44.6 °F 37.2 °F 33.8 °F 66% 29.65 in 10.0 mi West 17.3 mph 26.5 mph N/A   Overcast
8:53 PM 42.1 °F 34.9 °F 28.9 °F 60% 29.66 in 10.0 mi SW 13.8 mph - 0.00 in   Overcast
9:07 PM 41.0 °F 33.9 °F 30.2 °F 65% 29.67 in 10.0 mi SSW 12.7 mph - N/A   Overcast
9:53 PM 42.1 °F 34.5 °F 27.0 °F 55% 29.65 in 10.0 mi SW 15.0 mph - N/A   Overcast
10:53 PM 39.9 °F 35.8 °F 24.1 °F 53% 29.64 in 10.0 mi SSW 5.8 mph - N/A   Scattered Clouds
11:53 PM 37.0 °F 30.4 °F 21.9 °F 54% 29.67 in 10.0 mi West 9.2 mph - N/A   Mostly Cloudy